CW3846 Weather Reports


Display with metric or nautical units.
time (UTC)temp
F
wind
direction
speed
MPH
gust
MPH
rain 1hr
in
rain 24hr
in
rain mn
in
humidity
%
barometer
mb
20260903030530 97 0 0.0 0.0 0.00 0.00 0.00 27 1010.8
20260903030055 97 0 0.0 0.0 0.00 0.00 0.00 27 1010.7
20260903025530 97 0 0.0 0.0 0.00 0.00 0.00 27 1010.6
20260903025029 97 0 0.0 1.0 0.00 0.00 0.00 27 1010.6
20260903024550 97 0 0.0 1.0 0.00 0.00 0.00 26 1010.5
20260903024029 97 0 0.0 0.0 0.00 0.00 0.00 26 1010.6
20260903023531 97 0 0.0 0.0 0.00 0.00 0.00 26 1010.5
20260903023046 97 0 0.0 0.0 0.00 0.00 0.00 26 1010.5
20260903022530 98 0 0.0 0.0 0.00 0.00 0.00 26 1010.4
20260903022031 98 0 0.0 0.0 0.00 0.00 0.00 25 1010.3
20260903021547 98 0 0.0 0.0 0.00 0.00 0.00 25 1010.4
20260903021030 98 0 0.0 1.0 0.00 0.00 0.00 24 1010.3
20260903020528 98 0 0.0 1.0 0.00 0.00 0.00 24 1010.2
20260903020054 98 0 0.0 1.0 0.00 0.00 0.00 23 1010.3
20260903015531 99 0 0.0 1.0 0.00 0.00 0.00 23 1010.3
20260903015035 99 0 0.0 1.0 0.00 0.00 0.00 23 1010.2
20260903014553 99 0 0.0 1.0 0.00 0.00 0.00 23 1010.2
20260903014031 99 0 0.0 1.0 0.00 0.00 0.00 24 1010.1
20260903013529 99 0 0.0 1.0 0.00 0.00 0.00 24 1010.1
20260903013046 99 0 0.0 1.0 0.00 0.00 0.00 25 1010.1
20260903012534 99 0 0.0 1.0 0.00 0.00 0.00 24 1010.0
20260903012030 99 0 0.0 1.0 0.00 0.00 0.00 24 1010.1
20260903011559 99 0 0.0 0.0 0.00 0.00 0.00 23 1010.0
20260903011030 99 0 0.0 7.0 0.00 0.00 0.00 22 1010.1
20260903010531 99 0 0.0 7.0 0.00 0.00 0.00 22 1009.9
20260903010044 99 99 0.0 7.0 0.00 0.00 0.00 22 1009.9
20260903005530 100 0 0.0 6.0 0.00 0.00 0.00 22 1009.9
20260903005029 100 0 0.0 6.0 0.00 0.00 0.00 22 1009.9
20260903004553 100 113 0.0 4.0 0.00 0.00 0.00 22 1009.9
20260903004031 101 0 0.0 0.0 0.00 0.00 0.00 22 1010.0
20260903003531 101 0 0.0 0.0 0.00 0.00 0.00 21 1010.0
20260903003048 101 0 0.0 8.0 0.00 0.00 0.00 21 1010.0
20260903002531 101 0 0.0 8.0 0.00 0.00 0.00 21 1010.0
20260903002029 101 0 2.0 6.0 0.00 0.00 0.00 21 1009.7
20260903001555 101 0 0.0 8.0 0.00 0.00 0.00 21 1010.0
20260903001033 100 0 0.0 8.0 0.00 0.00 0.00 20 1010.1
20260903000529 101 0 0.0 3.0 0.00 0.00 0.00 20 1010.0
20260903000057 101 0 0.0 3.0 0.00 0.00 0.00 21 1010.1
20260902235529 101 0 0.0 4.0 0.00 0.00 0.00 20 1010.0
20260902235029 101 0 1.0 4.0 0.00 0.00 0.00 19 1010.2
20260902234552 102 0 0.0 2.0 0.00 0.00 0.00 19 1010.2
20260902234030 102 0 0.0 0.0 0.00 0.00 0.00 21 1010.2
20260902233532 102 0 0.0 1.0 0.00 0.00 0.00 21 1010.3
20260902233055 103 0 0.0 1.0 0.00 0.00 0.00 21 1010.3
20260902232528 103 244 0.0 3.0 0.00 0.00 0.00 21 1010.3
20260902232028 103 0 0.0 3.0 0.00 0.00 0.00 20 1010.6
20260902231605 102 0 0.0 1.0 0.00 0.00 0.00 21 1010.6
20260902231029 102 0 0.0 1.0 0.00 0.00 0.00 21 1010.6
20260902230528 102 0 0.0 1.0 0.00 0.00 0.00 21 1010.8
20260902230056 102 0 0.0 1.0 0.00 0.00 0.00 21 1010.9
20260902225528 102 0 0.0 1.0 0.00 0.00 0.00 21 1010.8
20260902225030 103 0 0.0 1.0 0.00 0.00 0.00 21 1010.9
20260902224558 103 0 0.0 2.0 0.00 0.00 0.00 21 1011.0
20260902224031 103 0 0.0 2.0 0.00 0.00 0.00 20 1011.0
20260902223529 103 0 0.0 2.0 0.00 0.00 0.00 21 1011.1
20260902223046 102 0 0.0 1.0 0.00 0.00 0.00 21 1011.1
20260902222531 102 0 0.0 2.0 0.00 0.00 0.00 21 1011.2
20260902222031 102 0 0.0 2.0 0.00 0.00 0.00 20 1011.2
20260902221557 102 0 0.0 1.0 0.00 0.00 0.00 21 1011.3
20260902221032 102 211 0.0 4.0 0.00 0.00 0.00 21 1011.4
20260902220531 102 0 0.0 4.0 0.00 0.00 0.00 21 1011.4
20260902220049 102 0 0.0 1.0 0.00 0.00 0.00 23 1011.4
20260902215528 102 0 0.0 1.0 0.00 0.00 0.00 23 1011.4
20260902215030 102 0 0.0 1.0 0.00 0.00 0.00 23 1011.5
20260902214554 102 0 0.0 1.0 0.00 0.00 0.00 22 1011.7
20260902214029 102 0 0.0 0.0 0.00 0.00 0.00 21 1011.7
20260902213529 102 0 0.0 0.0 0.00 0.00 0.00 22 1011.7
20260902213052 102 0 0.0 1.0 0.00 0.00 0.00 23 1011.7
20260902212533 102 0 0.0 2.0 0.00 0.00 0.00 23 1011.8
20260902212031 102 0 0.0 3.0 0.00 0.00 0.00 23 1011.9
20260902211554 102 0 0.0 3.0 0.00 0.00 0.00 23 1012.0
20260902211032 102 0 0.0 3.0 0.00 0.00 0.00 22 1012.0
20260902210530 102 0 0.0 0.0 0.00 0.00 0.00 23 1012.0
20260902210056 102 0 0.0 1.0 0.00 0.00 0.00 23 1012.1
20260902205528 102 0 0.0 1.0 0.00 0.00 0.00 22 1012.3
20260902205028 102 0 0.0 1.0 0.00 0.00 0.00 22 1012.4
20260902204555 101 0 0.0 1.0 0.00 0.00 0.00 23 1012.3
20260902204029 101 0 0.0 1.0 0.00 0.00 0.00 22 1012.4
20260902203528 101 0 0.0 1.0 0.00 0.00 0.00 23 1012.5
20260902203053 101 0 0.0 0.0 0.00 0.00 0.00 22 1012.6
20260902202531 101 0 0.0 0.0 0.00 0.00 0.00 22 1012.7
20260902202031 101 0 0.0 1.0 0.00 0.00 0.00 22 1012.9
20260902201553 101 0 0.0 1.0 0.00 0.00 0.00 21 1012.9
20260902201030 101 0 0.0 1.0 0.00 0.00 0.00 23 1012.9
20260902200535 100 0 0.0 0.0 0.00 0.00 0.00 22 1013.0
20260902200047 100 0 0.0 0.0 0.00 0.00 0.00 23 1013.0
20260902195531 100 0 0.0 0.0 0.00 0.00 0.00 23 1013.2
20260902195028 99 0 0.0 1.0 0.00 0.00 0.00 23 1013.2
20260902194546 99 0 0.0 1.0 0.00 0.00 0.00 23 1013.4
20260902194028 99 0 0.0 0.0 0.00 0.00 0.00 24 1013.4
20260902193529 99 0 0.0 0.0 0.00 0.00 0.00 24 1013.5
20260902193054 99 0 0.0 0.0 0.00 0.00 0.00 24 1013.5
20260902192528 99 0 0.0 0.0 0.00 0.00 0.00 24 1013.6
20260902192029 99 0 0.0 0.0 0.00 0.00 0.00 23 1013.7
20260902191552 99 0 0.0 0.0 0.00 0.00 0.00 23 1013.9
20260902191029 99 0 0.0 0.0 0.00 0.00 0.00 22 1013.9
20260902190531 99 0 0.0 0.0 0.00 0.00 0.00 23 1013.9
20260902190047 99 0 0.0 0.0 0.00 0.00 0.00 23 1014.0
20260902185530 99 0 0.0 0.0 0.00 0.00 0.00 23 1014.1
20260902185030 98 0 0.0 0.0 0.00 0.00 0.00 23 1014.2
20260902184554 98 0 0.0 0.0 0.00 0.00 0.00 23 1014.2
20260902184029 98 0 0.0 0.0 0.00 0.00 0.00 23 1014.3
20260902183530 98 0 0.0 0.0 0.00 0.00 0.00 23 1014.3
20260902183044 98 0 0.0 0.0 0.00 0.00 0.00 23 1014.3
20260902182533 98 0 0.0 0.0 0.00 0.00 0.00 23 1014.4
20260902182028 97 0 0.0 0.0 0.00 0.00 0.00 24 1014.5
20260902181554 97 0 0.0 0.0 0.00 0.00 0.00 25 1014.5
20260902181028 97 0 0.0 0.0 0.00 0.00 0.00 25 1014.7
20260902180529 96 0 0.0 0.0 0.00 0.00 0.00 25 1014.8
20260902180122 96 0 0.0 0.0 0.00 0.00 0.00 25 1014.7
20260902175528 96 0 0.0 0.0 0.00 0.00 0.00 26 1014.9
20260902175028 96 0 0.0 0.0 0.00 0.00 0.00 27 1014.8
20260902174553 95 0 0.0 0.0 0.00 0.00 0.00 27 1015.0
20260902174029 95 0 0.0 0.0 0.00 0.00 0.00 27 1015.0
20260902173531 95 0 0.0 0.0 0.00 0.00 0.00 27 1015.1
20260902173047 94 0 0.0 0.0 0.00 0.00 0.00 27 1015.1
20260902172532 94 0 0.0 0.0 0.00 0.00 0.00 28 1015.1
20260902172032 94 0 0.0 0.0 0.00 0.00 0.00 29 1015.0
20260902171547 93 0 0.0 0.0 0.00 0.00 0.00 28 1015.1
20260902171035 93 0 0.0 0.0 0.00 0.00 0.00 31 1015.1
20260902170533 93 0 0.0 0.0 0.00 0.00 0.00 29 1015.1
20260902170053 92 0 0.0 0.0 0.00 0.00 0.00 29 1015.1
20260902165532 92 0 0.0 0.0 0.00 0.00 0.00 29 1015.1
20260902165030 92 0 0.0 0.0 0.00 0.00 0.00 31 1015.2
20260902164548 92 0 0.0 0.0 0.00 0.00 0.00 31 1015.2
20260902164033 91 0 0.0 0.0 0.00 0.00 0.00 30 1015.2
20260902163533 91 0 0.0 0.0 0.00 0.00 0.00 30 1015.2
20260902163104 91 0 0.0 0.0 0.00 0.00 0.00 31 1015.1
20260902162530 91 0 0.0 0.0 0.00 0.00 0.00 31 1015.1
20260902162030 91 0 0.0 0.0 0.00 0.00 0.00 31 1015.0
20260902161559 91 0 0.0 1.0 0.00 0.00 0.00 32 1015.0
20260902161034 91 0 0.0 1.0 0.00 0.00 0.00 32 1015.1
20260902160532 91 0 0.0 1.0 0.00 0.00 0.00 33 1015.1
20260902160058 91 0 0.0 0.0 0.00 0.00 0.00 33 1014.9
20260902155532 90 0 0.0 0.0 0.00 0.00 0.00 35 1014.9
20260902155032 89 0 0.0 0.0 0.00 0.00 0.00 35 1014.9
20260902154550 89 0 0.0 0.0 0.00 0.00 0.00 36 1015.0
20260902154030 88 0 0.0 0.0 0.00 0.00 0.00 36 1015.0
20260902153533 88 0 0.0 0.0 0.00 0.00 0.00 38 1015.0
20260902153058 88 0 0.0 0.0 0.00 0.00 0.00 39 1014.9
20260902152531 88 0 0.0 0.0 0.00 0.00 0.00 39 1015.0
20260902152035 87 0 0.0 0.0 0.00 0.00 0.00 40 1014.9
20260902151554 87 0 0.0 0.0 0.00 0.00 0.00 41 1014.9
20260902151030 86 0 0.0 0.0 0.00 0.00 0.00 43 1014.7
20260902150530 86 0 0.0 0.0 0.00 0.00 0.00 43 1014.7
20260902150054 85 0 0.0 0.0 0.00 0.00 0.00 44 1014.7
20260902145531 85 0 0.0 0.0 0.00 0.00 0.00 45 1014.7
20260902145034 84 0 0.0 0.0 0.00 0.00 0.00 47 1014.5
20260902144553 84 0 0.0 0.0 0.00 0.00 0.00 48 1014.6
20260902144032 84 0 0.0 0.0 0.00 0.00 0.00 49 1014.5
20260902143534 84 0 0.0 0.0 0.00 0.00 0.00 48 1014.6
20260902143050 84 0 0.0 0.0 0.00 0.00 0.00 48 1014.6
20260902142530 84 0 0.0 0.0 0.00 0.00 0.00 47 1014.5
20260902142033 83 0 0.0 0.0 0.00 0.00 0.00 47 1014.4
20260902141552 83 0 0.0 0.0 0.00 0.00 0.00 48 1014.4
20260902141036 83 0 0.0 0.0 0.00 0.00 0.00 48 1014.4
20260902140817 83 0 0.0 0.0 0.00 0.00 0.00 50 1014.3
20260902140056 83 0 0.0 0.0 0.00 0.00 0.00 50 1014.4
20260902135529 83 0 0.0 0.0 0.00 0.00 0.00 49 1014.2
20260902135028 83 0 0.0 0.0 0.00 0.00 0.00 49 1014.2
20260902134555 83 0 0.0 0.0 0.00 0.00 0.00 48 1014.0
20260902134031 83 0 0.0 0.0 0.00 0.00 0.00 48 1014.0
20260902133528 83 0 0.0 0.0 0.00 0.00 0.00 48 1013.9
20260902133052 83 0 0.0 0.0 0.00 0.00 0.00 47 1013.9
20260902132527 83 0 0.0 0.0 0.00 0.00 0.00 47 1013.9
20260902132028 83 0 0.0 0.0 0.00 0.00 0.00 47 1013.8
20260902131547 83 0 0.0 0.0 0.00 0.00 0.00 47 1013.7
20260902131031 83 0 0.0 0.0 0.00 0.00 0.00 46 1013.7
20260902130536 84 0 0.0 0.0 0.00 0.00 0.00 45 1013.6
20260902125532 84 0 0.0 0.0 0.00 0.00 0.00 45 1013.5
20260902125031 84 0 0.0 0.0 0.00 0.00 0.00 44 1013.5
20260902124556 84 0 0.0 0.0 0.00 0.00 0.00 44 1013.4
20260902124027 84 0 0.0 0.0 0.00 0.00 0.00 44 1013.4
20260902123528 84 0 0.0 0.0 0.00 0.00 0.00 44 1013.4
20260902123056 84 0 0.0 0.0 0.00 0.00 0.00 43 1013.3
20260902122527 84 0 0.0 0.0 0.00 0.00 0.00 43 1013.3
20260902122029 84 0 0.0 0.0 0.00 0.00 0.00 43 1013.4
20260902121558 84 0 0.0 0.0 0.00 0.00 0.00 43 1013.4
20260902121028 85 0 0.0 0.0 0.00 0.00 0.00 42 1013.3
20260902120528 85 0 0.0 0.0 0.00 0.00 0.00 42 1013.3
20260902120055 85 0 0.0 0.0 0.00 0.00 0.00 42 1013.2
20260902115528 85 0 0.0 0.0 0.00 0.00 0.00 42 1013.2
20260902115032 85 0 0.0 0.0 0.00 0.00 0.00 42 1013.2
20260902114555 86 0 0.0 0.0 0.00 0.00 0.00 41 1013.2
20260902114031 86 0 0.0 0.0 0.00 0.00 0.00 41 1013.2
20260902113532 86 0 0.0 0.0 0.00 0.00 0.00 40 1013.1
20260902113100 86 0 0.0 0.0 0.00 0.00 0.00 40 1013.0
20260902112532 87 0 0.0 0.0 0.00 0.00 0.00 39 1013.0
20260902112032 87 0 0.0 0.0 0.00 0.00 0.00 39 1013.0
20260902111552 87 0 0.0 0.0 0.00 0.00 0.00 39 1012.9
20260902111031 87 0 0.0 0.0 0.00 0.00 0.00 39 1013.0
20260902110533 87 0 0.0 0.0 0.00 0.00 0.00 38 1012.9
20260902110048 87 0 0.0 0.0 0.00 0.00 0.00 38 1012.9
20260902105531 87 0 0.0 0.0 0.00 0.00 0.00 38 1013.0
20260902105031 87 0 0.0 0.0 0.00 0.00 0.00 38 1013.0
20260902104557 87 0 0.0 0.0 0.00 0.00 0.00 38 1012.9
20260902104030 87 0 0.0 0.0 0.00 0.00 0.00 38 1013.0
20260902103533 87 0 0.0 0.0 0.00 0.00 0.00 38 1013.1
20260902103051 87 0 0.0 0.0 0.00 0.00 0.00 38 1013.0
20260902102530 87 0 0.0 0.0 0.00 0.00 0.00 38 1013.0
20260902102032 87 0 0.0 0.0 0.00 0.00 0.00 38 1013.0
20260902101544 88 0 0.0 0.0 0.00 0.00 0.00 38 1013.0
20260902101031 88 0 0.0 0.0 0.00 0.00 0.00 38 1012.9
20260902100533 88 0 0.0 0.0 0.00 0.00 0.00 37 1013.0
20260902100109 88 0 0.0 0.0 0.00 0.00 0.00 37 1013.1
20260902095533 88 0 0.0 0.0 0.00 0.00 0.00 37 1013.1
20260902095030 88 0 0.0 0.0 0.00 0.00 0.00 37 1013.1
20260902094553 88 0 0.0 0.0 0.00 0.00 0.00 37 1013.1
20260902094030 88 0 0.0 0.0 0.00 0.00 0.00 37 1013.1
20260902093529 88 0 0.0 0.0 0.00 0.00 0.00 36 1013.0
20260902093057 88 0 0.0 0.0 0.00 0.00 0.00 36 1013.1
20260902092533 88 0 0.0 0.0 0.00 0.00 0.00 36 1013.0
20260902092032 88 0 0.0 0.0 0.00 0.00 0.00 36 1013.1
20260902091556 88 0 0.0 0.0 0.00 0.00 0.00 36 1013.0
20260902091033 89 0 0.0 0.0 0.00 0.00 0.00 36 1013.0
20260902090529 89 0 0.0 0.0 0.00 0.00 0.00 35 1012.9
20260902090053 89 0 0.0 0.0 0.00 0.00 0.00 35 1013.0
20260902085532 89 0 0.0 0.0 0.00 0.00 0.00 35 1013.0
20260902085033 89 0 0.0 0.0 0.00 0.00 0.00 35 1013.0
20260902084558 89 0 0.0 0.0 0.00 0.00 0.00 35 1013.1
20260902084034 89 0 0.0 0.0 0.00 0.00 0.00 34 1013.0
20260902083531 90 0 0.0 0.0 0.00 0.00 0.00 34 1013.1
20260902083047 90 0 0.0 0.0 0.00 0.00 0.00 34 1013.1
20260902082532 90 0 0.0 0.0 0.00 0.00 0.00 34 1013.1
20260902082030 90 0 0.0 0.0 0.00 0.00 0.00 34 1013.2
20260902081549 90 0 0.0 0.0 0.00 0.00 0.00 34 1013.2
20260902081029 90 0 0.0 0.0 0.00 0.00 0.00 34 1013.1
20260902080532 90 0 0.0 0.0 0.00 0.00 0.00 33 1013.1
20260902080056 90 0 0.0 0.0 0.00 0.00 0.00 33 1013.1
20260902075532 90 0 0.0 0.0 0.00 0.00 0.00 33 1013.2
20260902075032 90 0 0.0 0.0 0.00 0.00 0.00 33 1013.2
20260902074551 90 0 0.0 0.0 0.00 0.00 0.00 33 1013.1
20260902074031 90 0 0.0 0.0 0.00 0.00 0.00 34 1013.1
20260902073530 90 0 0.0 0.0 0.00 0.00 0.00 34 1013.1
20260902073053 90 0 0.0 0.0 0.00 0.00 0.00 34 1013.0
20260902072529 91 0 0.0 0.0 0.00 0.00 0.00 34 1013.0
20260902072030 91 0 0.0 0.0 0.00 0.00 0.00 34 1013.0
20260902071547 91 0 0.0 0.0 0.00 0.00 0.00 34 1012.9
20260902071029 91 0 0.0 0.0 0.00 0.00 0.00 34 1012.8
20260902070530 91 0 0.0 0.0 0.00 0.00 0.00 34 1012.8
20260902070047 91 0 0.0 0.0 0.00 0.00 0.00 34 1012.8
20260902065530 91 0 0.0 0.0 0.00 0.00 0.00 34 1012.8
20260902065031 91 0 0.0 0.0 0.00 0.00 0.00 34 1012.7
20260902064601 92 0 0.0 0.0 0.00 0.00 0.00 33 1012.6
20260902064029 92 0 0.0 0.0 0.00 0.00 0.00 33 1012.7
20260902063530 92 0 0.0 0.0 0.00 0.00 0.00 33 1012.6
20260902063052 92 0 0.0 0.0 0.00 0.00 0.00 33 1012.7
20260902062529 92 0 0.0 0.0 0.00 0.00 0.00 33 1012.7
20260902062030 92 0 0.0 0.0 0.00 0.00 0.00 33 1012.7
20260902061602 92 0 0.0 0.0 0.00 0.00 0.00 33 1012.7
20260902061031 92 0 0.0 0.0 0.00 0.00 0.00 32 1012.6
20260902060529 92 0 0.0 0.0 0.00 0.00 0.00 32 1012.7
20260902060049 92 0 0.0 0.0 0.00 0.00 0.00 32 1012.8
20260902055535 92 0 0.0 0.0 0.00 0.00 0.00 31 1012.8
20260902055030 92 0 0.0 0.0 0.00 0.00 0.00 31 1012.7
20260902054557 92 0 0.0 0.0 0.00 0.00 0.00 30 1012.7
20260902054029 92 0 0.0 0.0 0.00 0.00 0.00 29 1012.7
20260902053530 92 0 0.0 0.0 0.00 0.00 0.00 28 1012.7
20260902053052 92 0 0.0 0.0 0.00 0.00 0.00 28 1012.8
20260902052534 92 0 0.0 0.0 0.00 0.00 0.00 28 1012.8
20260902052033 92 0 0.0 0.0 0.00 0.00 0.00 28 1012.6
20260902051551 92 0 0.0 0.0 0.00 0.00 0.00 28 1012.7
20260902051030 92 0 0.0 0.0 0.00 0.00 0.00 28 1012.7
20260902050530 92 0 0.0 0.0 0.00 0.00 0.00 29 1012.6
20260902050055 92 0 0.0 0.0 0.00 0.00 0.00 30 1012.6
20260902045531 92 0 0.0 0.0 0.00 0.00 0.00 30 1012.5
20260902045029 92 0 0.0 0.0 0.00 0.00 0.00 29 1012.5
20260902044556 92 0 0.0 0.0 0.00 0.00 0.00 30 1012.3
20260902044032 93 0 0.0 0.0 0.00 0.00 0.00 30 1012.5
20260902043533 93 0 0.0 0.0 0.00 0.00 0.00 30 1012.5
20260902043100 93 0 0.0 0.0 0.00 0.00 0.00 30 1012.4
20260902042530 94 0 0.0 0.0 0.00 0.00 0.00 29 1012.3
20260902042031 94 0 0.0 0.0 0.00 0.00 0.00 28 1012.2
20260902041551 94 0 0.0 0.0 0.00 0.00 0.00 28 1012.0
20260902041034 94 0 0.0 0.0 0.00 0.00 0.00 30 1012.0
20260902040535 94 0 0.0 0.0 0.00 0.00 0.00 30 1011.8
20260902040059 94 0 0.0 0.0 0.00 0.00 0.00 30 1011.8
20260902035531 94 0 0.0 0.0 0.00 0.00 0.00 30 1011.8
20260902035029 94 0 0.0 0.0 0.00 0.00 0.00 30 1011.7
20260902034559 94 0 0.0 0.0 0.00 0.00 0.00 30 1011.6
20260902034032 95 0 0.0 0.0 0.00 0.00 0.00 30 1011.5
20260902033529 95 0 0.0 0.0 0.00 0.00 0.00 30 1011.4
20260902033102 95 0 0.0 0.0 0.00 0.00 0.00 30 1011.3
20260902032531 95 0 0.0 0.0 0.00 0.00 0.00 29 1011.3
20260902032029 95 0 0.0 0.0 0.00 0.00 0.00 29 1011.2
20260902031553 95 0 0.0 0.0 0.00 0.00 0.00 29 1011.1
20260902031031 95 0 0.0 0.0 0.00 0.00 0.00 29 1011.1